Regional Weather Roundup
Issued by NWS Bismarck, ND

Home | Current Version | Previous Version | Text Only | Print | Product List | Glossary On
Versions: 1 2 3 4 5 6 7 8 9 10 11 12 13 14 15 16 17 18 19 20 21 22 23 24 25 26 27 28 29 30 31 32 33 34 35 36 37 38 39 40 41 42 43 44 45 46 47 48 49 50
000
ASUS43 KBIS 030702
RWRBIS

NWR BROADCAST TEXT
NATIONAL WEATHER SERVICE BISMARCK ND
200 AM CDT MON AUG 03 2015

NOTE: "FAIR" INDICATES FEW OR NO CLOUDS BELOW 12,000 FEET WITH NO
SIGNIFICANT WEATHER AND/OR OBSTRUCTIONS TO VISIBILITY.


CITY           SKY/WX    TMP DP  RH WIND       PRES   REMARKS
WILLISTON      CLEAR     57  49  74 E3        30.04R
MINOT          CLEAR     56  50  80 SW9       29.98S
MINOT AFB      NOT AVBL
BISMARCK       CLEAR     58  52  80 CALM      29.99S
DICKINSON      CLEAR     52  47  83 W3        30.03S
GARRISON         N/A     56  51  84 N5        30.00R
HETTINGER ARPT CLEAR     51  46  83 CALM      30.05S
JAMESTOWN      CLEAR     56  50  80 NW5       29.95R
HAZEN          FAIR      52  48  87 CALM      30.02R
OAKES            N/A     57  55  94 W6        29.95R
STANLEY        FAIR      55  54  94 NW6       30.04R
$$

CITY           SKY/WX    TMP DP  RH WIND       PRES   REMARKS
GRAND FORKS    CLEAR     51  47  86 NW5       29.87S
GRAND FORKS AF NOT AVBL
DEVILS LAKE    CLEAR     57  46  67 W7        29.92S
FARGO          CLEAR     56  49  77 W7        29.89R
CAVALIER       FAIR      54  48  82 W5        29.88S
GRAFTON        FAIR      59  52  77 NW7       29.88S
GWINNER          N/A     57  54  88 W5        29.94S
LANGDON        FAIR      45  43  93 W5        29.92S
$$

CITY           SKY/WX    TMP DP  RH WIND       PRES   REMARKS
ABERDEEN       CLEAR     55  53  93 W5        29.96R
MOBRIDGE       CLEAR     58  55  90 NE5       29.97S
BUFFALO          N/A     60  49  66 NE10      29.99S
RAPID CITY     CLEAR     63  52  67 E3        30.04S
GLASGOW        CLEAR     61  47  59 E10       30.01S
SIDNEY         CLEAR     57  46  67 W6        30.03S
WOLF POINT     CLEAR     59  47  64 NE3       30.04R
GLENDIVE         N/A    N/A N/A N/A MISG        N/A
MILES CITY     CLEAR     64  48  56 N7        30.02R
BAKER          CLEAR     56  46  69 SE3       30.06R
$$

CITY           SKY/WX    TMP DP  RH WIND       PRES   REMARKS
BILLINGS       CLEAR     67  44  43 N8        30.02F
GREAT FALLS    CLEAR     67  48  50 E7        29.96S
$$



USA.gov is the U.S. government's official web portal to all federal, state and local government web resources and services.